This demonstration page uses our WeatherBlox Daily Observations layout. Learn more.

Left ArrowRight Arrow

Hourly Observations for September 12, 2022

Temp ( °F °C ) Dew Point ( °F °C ) Humidity (%) Winds ( mph kmh ) Pressure ( in mb ) Visibility ( mi km ) Precip ( " mm )
12:33 am 00:33 Cloudy 77 25 72 22.2 84 84 NW 9 15 30.05 1018 10 16 0.00 0.00
12:53 am 00:53 Cloudy 77 25 69 20.6 77 77 N 10 17 30.04 1017 10 16 0.00 0.00
1:53 am 01:53 Cloudy 77 25 70 21.1 79 79 N 9 15 30.03 1017 10 16 0.00 0.00
2:53 am 02:53 Clear 75 23.9 69 20.6 82 82 N 5 7 30.02 1017 10 16 0.00 0.00
3:53 am 03:53 Clear 75 23.9 66 18.9 74 74 NNE 8 13 30.01 1016 10 16 0.00 0.00
4:53 am 04:53 Clear 74 23.3 67 19.4 79 79 NNE 5 7 30.01 1016 10 16 0.00 0.00
5:53 am 05:53 Clear 73 22.8 65 18.3 76 76 Calm 30.01 1016 10 16 0.00 0.00
6:53 am 06:53 Sunny 77 25 64 17.8 64 64 Calm 30.02 1017 10 16 0.00 0.00
7:53 am 07:53 Partly Cloudy 79 26.1 64 17.8 60 60 SSE 6 9 30.04 1017 10 16 0.00 0.00
8:53 am 08:53 Partly Cloudy 80 26.7 67 19.4 64 64 S 13 20 30.04 1017 10 16 0.00 0.00
9:53 am 09:53 Sunny 82 27.8 68 20 63 63 S 13 20 30.05 1018 10 16 0.00 0.00
10:53 am 10:53 Partly Cloudy 84 28.9 69 20.6 61 61 S 15 24 30.06 1018 10 16 0.00 0.00
11:53 am 11:53 Mostly Sunny 84 28.9 71 21.7 65 65 SSW 16 26 30.04 1017 10 16 0.00 0.00
12:53 pm 12:53 Mostly Sunny 84 28.9 70 21.1 63 63 S 15 24 30.03 1017 10 16 0.00 0.00
1:53 pm 13:53 Partly Cloudy 85 29.4 71 21.7 63 63 S 14 22 30.01 1016 10 16 0.00 0.00
2:53 pm 14:53 Partly Cloudy 83 28.3 71 21.7 67 67 SSW 13 20 30.00 1016 10 16 0.00 0.00
3:53 pm 15:53 Mostly Cloudy 83 28.3 72 22.2 70 70 SW 10 17 30.00 1016 10 16 0.00 0.00
4:53 pm 16:53 Mostly Cloudy 82 27.8 71 21.7 69 69 SW 8 13 30.01 1016 10 16 0.00 0.00
5:53 pm 17:53 Cloudy 81 27.2 72 22.2 74 74 SW 8 13 30.02 1017 10 16 0.00 0.00
6:53 pm 18:53 Cloudy 80 26.7 71 21.7 74 74 WSW 6 9 30.04 1017 10 16 0.00 0.00
7:53 pm 19:53 Mostly Cloudy 79 26.1 71 21.7 77 77 W 9 15 30.05 1018 10 16 0.01 0.13
8:53 pm 20:53 Cloudy 79 26.1 69 20.6 72 72 WSW 6 9 30.06 1018 10 16 0.00 0.00
9:53 pm 21:53 Mostly Cloudy 79 26.1 70 21.1 74 74 W 5 7 30.07 1018 10 16 0.00 0.00
10:53 pm 22:53 Partly Cloudy 79 26.1 68 20 69 69 N 7 11 30.06 1018 10 16 0.00 0.00
11:53 pm 23:53 Cloudy 78 25.6 67 19.4 69 69 E 5 7 30.04 1017 10 16 0.00 0.00

Powered by AerisWeather